Regional Weather Roundup
Issued by NWS

Home | Current Version | Previous Version | Graphics & Text | Print | Product List | Glossary On
Versions: 1 2 3 4 5 6 7 8 9 10 11 12 13 14 15 16 17 18 19 20 21 22 23 24 25 26 27 28 29 30 31 32 33 34 35 36 37 38 39 40 41 42 43 44 45 46 47 48 49 50
720
ASUS43 KDTX 172310
RWRMI
MICHIGAN HOURLY REGIONAL WEATHER ROUNDUP
NATIONAL WEATHER SERVICE DETROIT/PONTIAC MI
700 PM EDT TUE OCT 17 2017

NOTE: "FAIR" INDICATES FEW OR NO CLOUDS BELOW 12,000 FEET WITH NO
SIGNIFICANT WEATHER AND/OR OBSTRUCTION TO VISIBILITY.

MIZ047>049-052>055-059>063-066>070-074>076-081>083-180000-
SOUTHEAST LOWER MICHIGAN

CITY           SKY/WX    TMP DP  RH WIND       PRES   REMARKS
ADRIAN         CLEAR     62  39  42 W5        30.17R
ALMA           CLEAR     61  41  47 W12G21    30.11R
ANN ARBOR      CLEAR     62  41  46 S9        30.13S
BAD AXE        CLOUDY    63  44  51 W7        30.08R
CARO           PTCLDY    64  43  46 SW10G17   30.08R
DETROIT CITY   CLEAR     64  40  41 SW14      30.13R
DETROIT        PTCLDY    64  41  42 SW13      30.15R
FLINT          CLEAR     63  41  44 W6        30.11R
GROSSE ILE     CLEAR     64  41  43 SW8       30.14R
HILLSDALE      CLEAR     59  37  44 SW7       30.16S
HOWELL         CLEAR     61  41  47 SW7       30.13R

CITY           SKY/WX    TMP DP  RH WIND       PRES   REMARKS
JACKSON        CLEAR     62  41  46 S10       30.14S
LAMBERTVILLE   CLEAR     64  39  39 SW5       30.16S
LANSING        CLEAR     64  39  39 SW10      30.12R
LAPEER         FAIR      64  41  44 SW7       30.10R
MASON          CLEAR     64  41  43 SW5       30.13R
MONROE         CLEAR     63  38  40 SW8       30.15R
MT. CLEMENS    MOCLDY    64  43  46 SW10      30.11R
PONTIAC        MOCLDY    63  42  46 SW7       30.12R
PORT HOPE        N/A     63  47  55 SW7       30.03R
PORT HURON     CLEAR     66  41  39 S5        30.10R
TRI CITIES     CLOUDY    63  47  55 W13       30.10R
MIDLAND        FAIR      64  46  53 W9        30.08R
TROY           CLEAR     65  39  38 SW7       30.14R
SAGINAW HB     CLEAR     63  45  51 SW10G18   30.09R
$$
MIZ043>046-050>051-056>058-064>065-071>073-077>080-180000-
SOUTHWEST LOWER MICHIGAN

CITY           SKY/WX    TMP DP  RH WIND       PRES   REMARKS
BATTLE CREEK   CLEAR     62  42  47 SW9       30.14S
BENTON HARBOR  CLEAR     63  41  44 SW6       30.13S
BIG RAPIDS     CLOUDY    60  45  56 SW7       30.08S
COLDWATER      CLEAR     61  37  41 SW5       30.16S
FREMONT        FAIR      60  47  62 SW6       30.08S
HOLLAND        CLEAR     64  43  46 SW20      30.11S
GRAND RAPIDS   PTCLDY    63  43  48 SW14      30.10S
IONIA          FAIR      62  40  44 SW9       30.10S
KALAMAZOO      CLEAR     63  38  39 SW8       30.14S
LUDINGTON      CLOUDY    60  48  65 CALM      30.05S
MARSHALL       CLEAR     62  41  46 SW5       30.14S
MOUNT PLEASANT CLOUDY    64  45  50 SW8       30.09R
MUSKEGON       MOCLDY    63  51  65 S13       30.08S
SOUTH HAVEN    CLEAR     64  40  41 SW9       30.12S
$$
MIZ016>042-180000-
NORTHERN LOWER MICHIGAN

CITY           SKY/WX    TMP DP  RH WIND       PRES   REMARKS
ALPENA         CLEAR     61  47  59 CALM      30.03R
BEAVER ISLAND  CLEAR     58  52  81 SW10G18   30.01R
BELLAIRE       CLEAR     56  49  78 CALM      30.04R
CADILLAC       CLOUDY    58  44  60 S6        30.06S
CHARLEVOIX     CLEAR     57  49  76 SW3       30.05S
FRANKFORT      CLEAR     59  49  69 E5        30.04S
GAYLORD        CLEAR     58  44  60 W8        30.04R
GRAYLING       CLEAR     60  44  56 W6        30.06R
HARBOR SPRINGS CLEAR     56  51  81 NE3       30.02R
HOUGHTON LAKE  CLEAR     59  47  64 SW7       30.07R
MANISTEE       CLOUDY    58  47  66 CALM      30.05S
OSCODA         CLEAR     58  47  67 W7        30.03R
PELLSTON       CLEAR     57  50  77 CALM      30.02R
ROGERS CITY    CLEAR     58  46  63 W6        30.02R
TRAVERSE CITY  MOCLDY    61  46  57 S3        30.03R
$$
MIZ007>008-015-180000-
EASTERN UPPER MICHIGAN

CITY           SKY/WX    TMP DP  RH WIND       PRES   REMARKS
KINROSS        CLEAR     54  46  74 CALM      30.02R
MACKINAC ISLAN CLEAR     58  51  79 SW10G16   30.02R
NEWBERRY       CLEAR     56  47  71 CALM      30.00R
S. S. MARIE    CLEAR     53  44  71 W5        30.00R
MUNISING         N/A     54  43  66 CALM      29.97R
$$
MIZ004>006-011>014-085-180000-
CENTRAL UPPER MICHIGAN

CITY           SKY/WX    TMP DP  RH WIND       PRES   REMARKS
MANISTIQUE     CLEAR     56  50  81 S9        29.99R
ESCANABA       CLEAR     58  53  84 S8        29.98R
MENOMINEE      CLEAR     60  48  64 SW6       30.00R
SAWYER-GWINN   CLEAR     59  46  63 E6        29.97S
$$
MIZ001>003-009>011-084-180000-
WESTERN UPPER MICHIGAN

CITY           SKY/WX    TMP DP  RH WIND       PRES   REMARKS
IRON MOUNTAIN  CLEAR     61  39  44 S3        29.95S
HOUGHTON       CLEAR     59  41  51 E3        29.92S
COPPER HARBOR    N/A     53  49  86 CALM      29.93S
IRONWOOD       CLEAR     66  39  37 S5        29.92
$$

ABBREVIATIONS USED IN REMARKS
   TC - TEMPERATURE IN CELSIUS
  WCI - WIND CHILL INDEX
   HX - HEAT INDEX
  VSB - VISIBILITY





USA.gov is the U.S. government's official web portal to all federal, state and local government web resources and services.